1501988400.03,27442,23.88,74516.3,10.11,-10.93,-8.41,0,*7D
1501988401.25,27443,23.88,74512.8,10.11,-10.89,-8.29,0,*79
1501988402.48,27444,23.88,74514.0,10.11,-10.93,-8.45,0,*7F
1501988403.68,27445,23.88,74512.3,10.13,-11.01,-8.45,0,*76
1501988404.87,27446,23.88,74512.5,10.13,-11.15,-8.67,0,*70
1501988406.1,27447,23.88,74508.0,10.11,-11.23,-8.75,0,*75
1501988407.31,27448,23.88,74514.8,10.11,-11.19,-8.63,0,*74
1501988408.53,27449,23.88,74518.5,10.11,-11.19,-8.63,0,*75
1501988409.72,27450,23.88,74526.8,10.13,-11.11,-8.59,0,*7E
1501988410.93,27451,23.88,74520.3,10.13,-11.01,-8.41,0,*77
1501988412.12,27452,23.88,74526.3,10.13,-10.89,-8.41,0,*75
1501988413.32,27453,23.88,74522.3,10.13,-11.01,-8.41,0,*75
1501988414.52,27454,23.88,74522.8,10.13,-11.01,-8.41,0,*72
1501988415.71,27455,23.88,74524.0,10.13,-10.85,-8.29,0,*70
1501988416.9,27456,23.88,74530.5,10.13,-10.85,-8.29,0,*73
1501988418.1,27457,23.88,74528.5,10.13,-10.85,-8.25,0,*7E
1501988419.32,27458,23.88,74528.5,10.13,-10.71,-8.25,0,*7A
1501988420.54,27459,23.88,74528.3,10.13,-10.75,-8.25,0,*7F
1501988421.77,27460,23.88,74526.5,10.13,-10.75,-8.37,0,*76
1501988422.97,27461,23.88,74526.0,10.13,-10.97,-8.45,0,*7E
1501988424.16,27462,23.88,74516.3,10.13,-11.15,-8.59,0,*7B
1501988425.35,27463,23.88,74512.0,10.13,-11.15,-8.59,0,*7A
1501988426.58,27464,23.88,74514.5,10.13,-11.29,-8.71,0,*78
1501988427.8,27465,23.88,74508.0,10.13,-11.29,-8.71,0,*79
1501988429.04,27466,23.88,74508.3,10.13,-11.33,-8.81,0,*7E
1501988430.25,27467,23.88,74510.5,10.13,-11.41,-8.85,0,*7E
1501988431.49,27468,23.88,74510.8,10.13,-11.33,-8.81,0,*70
1501988432.73,27469,23.88,74514.5,10.11,-11.37,-8.75,0,*7C
1501988433.96,27470,23.88,74512.3,10.13,-11.29,-8.71,0,*7D
1501988435.2,27471,23.88,74514.5,10.13,-11.29,-8.81,0,*73
1501988436.46,27472,23.88,74516.5,10.11,-11.37,-8.85,0,*79
1501988437.68,27473,23.88,74512.8,10.11,-11.23,-8.71,0,*76
1501988438.93,27474,23.88,74516.5,10.11,-11.33,-8.75,0,*74
1501988440.15,27475,23.88,74520.5,10.13,-11.33,-8.71,0,*73
1501988441.4,27476,23.88,74514.3,10.11,-11.37,-8.71,0,*76
1501988442.62,27477,23.88,74518.8,10.09,-11.33,-8.75,0,*7E
1501988443.84,27478,23.88,74518.5,10.09,-11.33,-8.75,0,*71
1501988445.05,27479,23.88,74522.8,10.09,-11.37,-8.75,0,*74
1501988446.27,27480,23.88,74518.8,10.09,-11.37,-8.75,0,*72
1501988447.49,27481,23.88,74520.5,10.09,-11.37,-8.75,0,*73
1501988448.71,27482,23.88,74522.3,10.09,-11.33,-8.71,0,*70
1501988449.9,27483,23.88,74520.0,10.09,-11.45,-8.75,0,*74
1501988451.12,27484,23.88,74518.5,10.09,-11.37,-8.71,0,*72
1501988452.34,27485,23.88,74518.5,10.09,-11.33,-8.75,0,*73
1501988453.59,27486,23.88,74518.5,10.07,-11.37,-8.75,0,*7A
1501988454.84,27487,23.88,74522.8,10.07,-11.41,-8.81,0,*71
1501988456.09,27488,23.88,74520.8,10.07,-11.41,-8.81,0,*7E
1501988457.32,27489,23.88,74522.5,10.07,-11.41,-8.75,0,*74
1501988458.59,27490,23.88,74522.3,10.07,-11.51,-8.81,0,*76
1501988459.78,27491,23.88,74522.8,10.09,-11.45,-8.75,0,*77
1501988461.04,27492,23.88,74526.3,10.07,-11.41,-8.81,0,*75
1501988462.25,27493,23.88,74522.8,10.09,-11.37,-8.71,0,*74
1501988463.5,27494,23.88,74524.5,10.07,-11.29,-8.55,0,*74
1501988464.75,27495,23.88,74522.0,10.07,-11.37,-8.67,0,*7B
1501988465.97,27496,23.88,74520.3,10.07,-11.23,-8.55,0,*7C
1501988467.18,27497,23.88,74524.3,10.07,-11.19,-8.55,0,*74
1501988468.44,27498,23.88,74520.3,10.07,-11.11,-8.51,0,*77
1501988469.66,27499,23.88,74526.0,10.07,-10.97,-8.33,0,*7D
1501988470.94,27500,23.88,74522.0,10.07,-10.79,-8.11,0,*7C
1501988472.22,27501,23.88,74524.5,10.07,-10.79,-8.11,0,*7D
1501988473.5,27502,23.88,74520.0,10.07,-10.79,-8.11,0,*7E
1501988474.72,27503,23.88,74524.5,10.09,-10.75,-8.17,0,*7B
1501988475.99,27504,23.88,74526.3,10.07,-10.79,-8.11,0,*78
1501988477.28,27505,23.88,74522.0,10.07,-10.79,-8.07,0,*7E
1501988478.52,27506,23.88,74522.0,10.07,-10.53,-7.95,0,*71
1501988479.75,27507,23.88,74522.0,10.07,-10.45,-7.83,0,*70
1501988480.98,27508,23.88,74522.8,10.09,-10.41,-7.83,0,*75
1501988482.21,27509,23.88,74522.8,10.09,-10.41,-7.83,0,*74
1501988483.43,27510,23.88,74520.8,10.09,-10.35,-7.69,0,*7B
1501988484.66,27511,23.88,74516.8,10.09,-10.35,-7.65,0,*76
1501988485.91,27512,23.88,74518.8,10.07,-10.31,-7.69,0,*73
1501988487.12,27513,23.88,74518.8,10.09,-10.35,-7.83,0,*7C
1501988488.31,27514,23.88,74520.5,10.09,-10.53,-7.83,0,*7B
1501988489.54,27515,23.88,74520.5,10.11,-10.49,-7.83,0,*78
1501988490.8,27516,23.88,74518.8,10.11,-10.41,-7.83,0,*73
1501988492.04,27517,23.88,74522.8,10.11,-10.53,-7.91,0,*72
1501988493.32,27518,23.88,74522.0,10.11,-10.63,-7.91,0,*7E
1501988494.6,27519,23.88,74522.3,10.11,-10.63,-7.95,0,*7B
1501988495.87,27520,23.88,74518.0,10.11,-10.75,-8.03,0,*76
1501988497.13,27521,23.88,74518.3,10.11,-10.75,-8.17,0,*72
1501988498.37,27522,23.88,74520.8,10.11,-10.79,-8.17,0,*7D
1501988499.65,27523,23.88,74522.0,10.11,-10.67,-7.95,0,*76
1501988500.93,27524,23.88,74520.3,10.11,-10.67,-8.03,0,*71
1501988502.21,27525,23.88,74520.8,10.11,-10.67,-8.03,0,*70
1501988503.49,27526,23.88,74522.5,10.11,-10.67,-8.03,0,*73
1501988504.77,27527,23.88,74524.0,10.11,-10.63,-8.03,0,*76
1501988506.0,27528,23.88,74520.5,10.11,-10.49,-7.83,0,*76
1501988507.23,27529,23.88,74522.5,10.11,-10.49,-7.83,0,*77
1501988508.46,27530,23.88,74518.3,10.11,-10.49,-7.83,0,*7F
1501988509.69,27531,23.88,74518.0,10.11,-10.49,-7.83,0,*7E
1501988510.92,27532,23.88,74520.8,10.11,-10.49,-7.83,0,*7D
1501988512.2,27533,23.88,74518.5,10.11,-10.41,-7.77,0,*7F
1501988513.42,27534,23.88,74520.3,10.13,-10.31,-7.65,0,*7E
1501988514.65,27535,23.88,74522.3,10.13,-10.35,-7.77,0,*78
1501988515.88,27536,23.88,74518.8,10.13,-10.35,-7.77,0,*7B
1501988517.08,27537,23.88,74518.8,10.13,-10.35,-7.87,0,*75
1501988518.3,27538,23.88,74516.0,10.13,-10.45,-7.77,0,*72
1501988519.53,27539,23.88,74512.3,10.13,-10.31,-7.73,0,*74
1501988520.75,27540,23.88,74518.3,10.13,-10.23,-7.61,0,*7A
1501988521.98,27541,23.88,74518.5,10.13,-10.45,-7.77,0,*7C
1501988523.2,27542,23.88,74514.8,10.15,-10.57,-7.87,0,*75
1501988524.48,27543,23.88,74516.8,10.15,-10.63,-7.91,0,*74
1501988525.76,27544,23.88,74522.0,10.15,-10.63,-7.99,0,*7B
1501988527.01,27545,23.88,74516.3,10.15,-10.57,-7.91,0,*75
1501988528.26,27546,23.88,74520.8,10.15,-10.57,-7.77,0,*7E
1501988529.51,27547,23.88,74520.5,10.15,-10.45,-7.73,0,*78
1501988530.74,27548,23.88,74520.3,10.17,-10.35,-7.77,0,*76
1501988531.99,27549,23.88,74520.3,10.15,-10.31,-7.73,0,*75
1501988533.24,27550,23.88,74516.0,10.15,-10.23,-7.65,0,*79
1501988534.49,27551,23.88,74516.0,10.17,-10.41,-7.73,0,*79
1501988535.71,27552,23.88,74518.5,10.17,-10.27,-7.69,0,*71
1501988536.94,27553,23.88,74516.5,10.17,-10.27,-7.61,0,*78
1501988538.16,27554,23.88,74516.0,10.17,-10.27,-7.61,0,*7F
1501988539.39,27555,23.88,74518.0,10.17,-10.15,-7.57,0,*7A
1501988540.62,27556,23.88,74516.3,10.17,-10.19,-7.57,0,*75
1501988541.87,27557,23.88,74518.5,10.15,-10.23,-7.61,0,*7A
1501988543.09,27558,23.88,74516.8,10.17,-10.27,-7.69,0,*7B
1501988544.32,27559,23.88,74516.0,10.17,-10.15,-7.57,0,*76
1501988545.54,27560,23.88,74518.8,10.21,-10.15,-7.57,0,*79
1501988546.77,27561,23.88,74516.0,10.21,-10.15,-7.57,0,*78
1501988548.0,27562,23.88,74516.5,10.21,-10.35,-7.65,0,*78
1501988549.25,27563,23.88,74516.3,10.23,-10.23,-7.57,0,*7D
1501988550.44,27564,23.88,74522.8,10.21,-10.15,-7.53,0,*79
1501988551.65,27565,23.88,74514.8,10.23,-10.09,-7.53,0,*77
1501988552.88,27566,23.88,74520.8,10.21,-10.23,-7.57,0,*7A
1501988554.12,27567,23.88,74518.5,10.23,-10.27,-7.65,0,*7C
1501988555.37,27568,23.88,74518.3,10.23,-10.27,-7.65,0,*73
1501988556.59,27569,23.88,74518.8,10.21,-10.27,-7.69,0,*7C
1501988557.86,27570,23.88,74518.0,10.23,-10.41,-7.69,0,*76
1501988559.11,27571,23.88,74522.0,10.23,-10.49,-7.77,0,*70
1501988560.33,27572,23.88,74520.0,10.23,-10.49,-7.83,0,*78
1501988561.55,27573,23.88,74518.0,10.23,-10.53,-7.83,0,*72
1501988562.77,27574,23.88,74522.8,10.21,-10.53,-7.77,0,*7C
1501988563.99,27575,23.88,74516.8,10.23,-10.53,-7.83,0,*74
1501988565.24,27576,23.88,74522.8,10.23,-10.49,-7.77,0,*77
1501988566.48,27577,23.88,74522.0,10.23,-10.53,-7.77,0,*7D
1501988567.72,27578,23.88,74520.5,10.23,-10.49,-7.77,0,*79
1501988568.95,27579,23.88,74524.3,10.23,-10.53,-7.83,0,*78
1501988570.16,27580,23.88,74526.3,10.21,-10.53,-7.95,0,*7B
1501988571.43,27581,23.88,74524.5,10.23,-10.75,-8.03,0,*7C
1501988572.67,27582,23.88,74524.0,10.21,-10.75,-8.03,0,*7D
1501988573.93,27583,23.88,74524.0,10.21,-10.67,-8.07,0,*7B
1501988575.18,27584,23.88,74524.5,10.21,-10.67,-7.95,0,*78
1501988576.46,27585,23.88,74524.5,10.23,-10.79,-8.07,0,*70
1501988577.71,27586,23.88,74524.0,10.21,-10.79,-8.07,0,*71
1501988578.94,27587,23.88,74524.8,10.21,-10.89,-8.07,0,*7F
1501988580.13,27588,23.88,74520.5,10.21,-10.89,-8.21,0,*74
1501988581.33,27589,23.88,74522.3,10.21,-10.89,-8.21,0,*75
1501988582.53,27590,23.88,74522.8,10.21,-10.93,-8.21,0,*76
1501988583.73,27591,23.88,74522.5,10.21,-10.89,-8.21,0,*7C
1501988584.92,27592,23.88,74524.0,10.21,-10.89,-8.17,0,*7A
1501988586.11,27593,23.88,74522.5,10.21,-10.89,-8.17,0,*7B
1501988587.36,27594,23.88,74524.8,10.21,-10.75,-8.03,0,*7A
1501988588.61,27595,23.88,74520.5,10.21,-10.67,-7.95,0,*78
1501988589.86,27596,23.88,74520.3,10.17,-10.71,-8.07,0,*7D
1501988591.11,27597,23.88,74520.3,10.17,-10.79,-8.07,0,*74
1501988592.34,27598,23.88,74518.5,10.17,-10.85,-8.11,0,*7F
1501988593.59,27599,23.88,74520.0,10.17,-10.79,-8.07,0,*7A
1501988594.85,27600,23.88,74522.0,10.17,-10.71,-8.07,0,*71
1501988596.04,27601,23.88,74522.8,10.17,-10.57,-7.87,0,*73
1501988597.25,27602,23.88,74520.3,10.17,-10.57,-7.83,0,*74
1501988598.49,27603,23.88,74518.0,10.17,-10.41,-7.69,0,*76
1501988599.71,27604,23.88,74520.5,10.17,-10.45,-7.73,0,*7E
1501988600.94,27605,23.88,74516.8,10.17,-10.45,-7.73,0,*7F
1501988602.16,27606,23.88,74522.0,10.21,-10.49,-7.69,0,*7E
1501988603.38,27607,23.88,74522.0,10.21,-10.49,-7.77,0,*70
1501988604.63,27608,23.88,74518.0,10.21,-10.41,-7.77,0,*77
1501988605.86,27609,23.88,74522.0,10.21,-10.35,-7.65,0,*76
1501988607.07,27610,23.88,74516.3,10.17,-10.45,-7.69,0,*70
1501988608.29,27611,23.88,74518.0,10.21,-10.49,-7.65,0,*74
1501988609.51,27612,23.88,74520.3,10.21,-10.49,-7.69,0,*7B
1501988610.74,27613,23.88,74516.5,10.21,-10.49,-7.77,0,*75
1501988611.95,27614,23.88,74516.5,10.17,-10.53,-7.73,0,*78
1501988613.17,27615,23.88,74520.3,10.17,-10.53,-7.73,0,*79
1501988614.39,27616,23.88,74516.8,10.21,-10.49,-7.69,0,*7F
1501988615.64,27617,23.88,74520.5,10.21,-10.41,-7.69,0,*76
1501988616.88,27618,23.88,74520.3,10.21,-10.41,-7.69,0,*79
1501988618.1,27619,23.88,74516.5,10.21,-10.49,-7.69,0,*70
1501988619.35,27620,23.88,74520.0,10.21,-10.41,-7.69,0,*72
1501988620.58,27621,23.88,74520.3,10.21,-10.35,-7.65,0,*7C
1501988621.82,27622,23.88,74518.0,10.23,-10.23,-7.57,0,*7B
1501988623.05,27623,23.88,74516.0,10.21,-10.27,-7.57,0,*7C
1501988624.24,27624,23.88,74522.0,10.21,-10.27,-7.53,0,*7F
1501988625.44,27625,23.88,74516.3,10.21,-10.27,-7.53,0,*7E
1501988626.63,27626,23.88,74518.5,10.21,-10.23,-7.53,0,*79
1501988627.87,27627,23.88,74516.3,10.23,-10.09,-7.39,0,*7E
1501988629.08,27628,23.88,74518.0,10.21,-10.09,-7.39,0,*73
1501988630.28,27629,23.88,74518.8,10.21,-10.23,-7.53,0,*76
1501988631.49,27630,23.88,74514.3,10.23,-10.23,-7.53,0,*7C
1501988632.71,27631,23.88,74514.0,10.23,-10.23,-7.53,0,*7D
1501988633.93,27632,23.88,74508.0,10.23,-10.15,-7.49,0,*70
1501988635.18,27633,23.88,74512.8,10.23,-10.15,-7.39,0,*76
1501988636.43,27634,23.88,74514.5,10.23,-10.15,-7.39,0,*71
1501988637.66,27635,23.88,74518.5,10.23,-10.15,-7.49,0,*77
1501988638.87,27636,23.88,74514.0,10.25,-10.09,-7.35,0,*74
1501988640.09,27637,23.88,74518.5,10.25,-10.09,-7.43,0,*74
1501988641.3,27638,23.88,74516.0,10.25,-10.09,-7.35,0,*7A
1501988642.51,27639,23.88,74516.0,10.25,-10.05,-7.31,0,*73
1501988643.72,27640,23.88,74512.8,10.25,-10.05,-7.31,0,*7D
1501988644.93,27641,23.88,74516.8,10.25,-10.09,-7.35,0,*74
1501988646.18,27642,23.88,74516.8,10.27,-10.05,-7.31,0,*7D
1501988647.42,27643,23.88,74518.0,10.27,-10.01,-7.31,0,*78
1501988648.62,27644,23.88,74518.3,10.25,-10.01,-7.23,0,*7E
1501988649.81,27645,23.88,74514.5,10.25,-10.01,-7.19,0,*76
1501988651.05,27646,23.88,74518.0,10.27,-10.05,-7.43,0,*7C
1501988652.3,27647,23.88,74518.0,10.27,-10.09,-7.35,0,*70
1501988653.51,27648,23.88,74518.8,10.25,-10.09,-7.43,0,*7C
1501988654.73,27649,23.88,74516.8,10.25,-10.05,-7.31,0,*74
1501988655.94,27650,23.88,74514.8,10.29,-10.05,-7.27,0,*77
1501988657.19,27651,23.88,74520.5,10.27,-10.19,-7.35,0,*76
1501988658.45,27652,23.88,74516.5,10.27,-10.19,-7.43,0,*74
1501988659.71,27653,23.88,74516.5,10.27,-10.19,-7.43,0,*75
1501988660.9,27654,23.88,74518.8,10.25,-10.23,-7.53,0,*78
1501988662.12,27655,23.88,74516.8,10.27,-10.23,-7.49,0,*70
1501988663.34,27656,23.88,74518.5,10.27,-10.19,-7.49,0,*7A
1501988664.56,27657,23.88,74518.0,10.27,-10.09,-7.49,0,*7A
1501988665.78,27658,23.88,74518.0,10.27,-10.23,-7.53,0,*76
1501988667.03,27659,23.88,74518.8,10.27,-10.49,-7.65,0,*7E
1501988668.28,27660,23.88,74518.3,10.27,-10.35,-7.65,0,*7F
1501988669.54,27661,23.88,74516.8,10.27,-10.35,-7.61,0,*7A
1501988670.79,27662,23.88,74516.3,10.27,-10.45,-7.65,0,*7A
1501988672.01,27663,23.88,74516.8,10.25,-10.31,-7.61,0,*7E
1501988673.26,27664,23.88,74518.3,10.27,-10.31,-7.61,0,*7B
1501988674.52,27665,23.88,74520.3,10.27,-10.31,-7.61,0,*7A
1501988675.77,27666,23.88,74522.5,10.27,-10.31,-7.61,0,*79
1501988677.02,27667,23.88,74518.3,10.27,-10.31,-7.65,0,*7C
1501988678.27,27668,23.88,74516.3,10.27,-10.45,-7.65,0,*70
1501988679.48,27669,23.88,74516.8,10.29,-10.45,-7.69,0,*73
1501988680.73,27670,23.88,74516.3,10.27,-10.49,-7.73,0,*72
1501988681.98,27671,23.88,74516.0,10.27,-10.49,-7.73,0,*73
1501988683.23,27672,23.88,74518.8,10.27,-10.49,-7.73,0,*70
1501988684.48,27673,23.88,74518.0,10.27,-10.49,-7.73,0,*71
1501988685.73,27674,23.88,74512.0,10.27,-10.49,-7.73,0,*76
1501988686.98,27675,23.88,74514.5,10.27,-10.49,-7.77,0,*73
1501988688.23,27676,23.88,74514.5,10.27,-10.49,-7.77,0,*70
1501988689.47,27677,23.88,74516.8,10.27,-10.45,-7.73,0,*79
1501988690.73,27678,23.88,74516.3,10.27,-10.45,-7.61,0,*75
1501988691.98,27679,23.88,74512.0,10.27,-10.35,-7.61,0,*73
1501988693.24,27680,23.88,74512.8,10.27,-10.35,-7.61,0,*75
1501988694.5,27681,23.88,74510.3,10.27,-10.35,-7.61,0,*74
1501988695.75,27682,23.88,74514.0,10.27,-10.31,-7.61,0,*73
1501988697.0,27683,23.88,74510.5,10.27,-10.31,-7.61,0,*72
1501988698.19,27684,23.88,74514.3,10.25,-10.31,-7.53,0,*76
1501988699.44,27685,23.88,74508.5,10.27,-10.31,-7.65,0,*70
1501988700.7,27686,23.88,74510.8,10.27,-10.31,-7.61,0,*77
1501988701.94,27687,23.88,74512.0,10.27,-10.09,-7.43,0,*7D
1501988703.16,27688,23.88,74512.8,10.27,-10.23,-7.53,0,*7B
1501988704.35,27689,23.88,74512.0,10.25,-10.23,-7.49,0,*73
1501988705.57,27690,23.88,74508.5,10.25,-10.09,-7.43,0,*79
1501988706.82,27691,23.88,74508.5,10.27,-10.19,-7.35,0,*7A
1501988708.08,27692,23.88,74512.3,10.27,-10.19,-7.43,0,*78
1501988709.28,27693,23.88,74514.5,10.29,-10.19,-7.49,0,*7D
1501988710.5,27694,23.88,74514.3,10.29,-10.15,-7.39,0,*71
1501988711.72,27695,23.88,74516.8,10.29,-10.05,-7.39,0,*71
1501988712.93,27696,23.88,74512.0,10.29,-10.05,-7.31,0,*7A
1501988714.18,27697,23.88,74512.8,10.27,-10.05,-7.43,0,*70
1501988715.41,27698,23.88,74512.8,10.27,-10.19,-7.49,0,*78
1501988716.6,27699,23.88,74514.5,10.29,-10.15,-7.49,0,*7B
1501988717.83,27700,23.88,74516.8,10.29,-10.19,-7.43,0,*7C
1501988719.03,27701,23.88,74518.8,10.29,-10.19,-7.49,0,*77
1501988720.29,27702,23.88,74520.0,10.31,-10.27,-7.43,0,*7A
1501988721.51,27703,23.88,74518.0,10.31,-10.27,-7.53,0,*7A
1501988722.7,27704,23.88,74522.8,10.29,-10.27,-7.49,0,*7F
1501988723.96,27705,23.88,74520.0,10.31,-10.15,-7.43,0,*7C
1501988725.16,27706,23.88,74522.8,10.29,-10.19,-7.49,0,*70
1501988726.38,27707,23.88,74518.8,10.29,-10.27,-7.57,0,*73
1501988727.61,27708,23.88,74522.8,10.29,-10.31,-7.57,0,*7B
1501988728.83,27709,23.88,74522.8,10.29,-10.31,-7.61,0,*7F
1501988730.09,27710,23.88,74524.3,10.29,-10.41,-7.61,0,*70
1501988731.34,27711,23.88,74520.8,10.29,-10.41,-7.61,0,*71
1501988732.56,27712,23.88,74522.3,10.29,-10.45,-7.69,0,*7E
1501988733.77,27713,23.81,74516.3,10.29,-10.45,-7.69,0,*7F
1501988734.99,27714,23.88,74520.3,10.29,-10.45,-7.69,0,*78
1501988736.21,27715,23.88,74520.3,10.29,-10.45,-7.73,0,*72
1501988737.43,27716,23.88,74522.5,10.29,-10.53,-7.73,0,*76
1501988738.65,27717,23.88,74526.5,10.29,-10.45,-7.73,0,*70
1501988739.87,27718,23.88,74520.0,10.29,-10.45,-7.69,0,*74
1501988741.07,27719,23.88,74522.0,10.29,-10.45,-7.83,0,*71
1501988742.29,27720,23.88,74524.3,10.29,-10.53,-7.73,0,*73
1501988743.51,27721,23.88,74520.3,10.29,-10.53,-7.73,0,*72
1501988744.73,27722,23.88,74520.5,10.29,-10.57,-7.73,0,*75
1501988745.95,27723,23.88,74526.8,10.29,-10.53,-7.73,0,*70
1501988747.17,27724,23.88,74522.8,10.29,-10.53,-7.73,0,*77
1501988748.42,27725,23.88,74524.8,10.27,-10.63,-7.87,0,*70
1501988749.68,27726,23.88,74520.5,10.27,-10.63,-7.87,0,*73
1501988750.88,27727,23.88,74520.3,10.25,-10.57,-7.87,0,*77
1501988752.1,27728,23.88,74518.5,10.25,-10.57,-7.91,0,*7F
1501988753.37,27729,23.88,74518.5,10.27,-10.63,-7.91,0,*7B
1501988754.63,27730,23.88,74520.5,10.27,-10.63,-7.87,0,*74
1501988755.83,27731,23.88,74518.8,10.25,-10.57,-7.87,0,*70
1501988757.08,27732,23.88,74520.8,10.27,-10.63,-7.87,0,*76
1501988758.33,27733,23.88,74518.0,10.25,-10.63,-7.91,0,*72
1501988759.57,27734,23.88,74518.3,10.25,-10.63,-7.91,0,*75
1501988760.82,27735,23.88,74520.8,10.25,-10.71,-7.99,0,*7F
1501988762.07,27736,23.88,74518.5,10.25,-10.71,-7.99,0,*7C
1501988763.31,27737,23.88,74522.0,10.25,-10.71,-7.91,0,*75
1501988764.56,27738,23.88,74518.3,10.25,-10.71,-7.91,0,*7A
1501988765.8,27739,23.88,74518.0,10.25,-10.75,-7.91,0,*7F
1501988767.07,27740,23.88,74516.0,10.23,-10.79,-7.95,0,*7F
1501988768.31,27741,23.88,74516.3,10.21,-10.79,-7.95,0,*7C
1501988769.58,27742,23.88,74520.5,10.23,-10.75,-7.95,0,*71
1501988770.83,27743,23.88,74520.5,10.21,-10.75,-7.95,0,*72
1501988772.09,27744,23.88,74518.8,10.23,-10.75,-7.95,0,*77
1501988773.36,27745,23.88,74522.0,10.23,-10.79,-7.95,0,*7A
1501988774.61,27746,23.88,74522.5,10.21,-10.79,-7.91,0,*7F
1501988775.85,27747,23.88,74518.0,10.21,-10.75,-7.95,0,*76
1501988777.09,27748,23.88,74518.3,10.21,-10.75,-8.03,0,*79
1501988778.35,27749,23.88,74520.3,10.21,-10.67,-7.91,0,*7F
1501988779.6,27750,23.88,74522.5,10.21,-10.63,-7.77,0,*7B
1501988780.85,27751,23.88,74520.5,10.21,-10.41,-7.65,0,*79
1501988782.08,27752,23.88,74522.5,10.21,-10.35,-7.57,0,*78
1501988783.27,27753,23.88,74518.8,10.21,-10.23,-7.53,0,*7A
1501988784.49,27754,23.88,74518.3,10.21,-10.23,-7.39,0,*71
1501988785.71,27755,23.88,74518.5,10.23,-10.23,-7.49,0,*75
1501988786.91,27756,23.88,74518.5,10.21,-10.27,-7.49,0,*70
1501988788.1,27757,23.88,74516.0,10.21,-10.23,-7.53,0,*7E
1501988789.3,27758,23.88,74516.5,10.21,-10.23,-7.49,0,*7A
1501988790.54,27759,23.88,74514.3,10.23,-10.09,-7.39,0,*76
1501988791.79,27760,23.88,74514.5,10.23,-10.15,-7.27,0,*7E
1501988793.03,27761,23.88,74514.5,10.23,-10.09,-7.35,0,*71
1501988794.22,27762,23.88,74516.5,10.21,-10.23,-7.49,0,*73
1501988795.47,27763,23.88,74514.3,10.23,-10.05,-7.27,0,*7C
1501988796.7,27764,23.88,74516.0,10.23,-10.05,-7.35,0,*78
1501988797.92,27765,23.88,74516.0,10.23,-10.23,-7.49,0,*76
1501988799.12,27766,23.88,74514.3,10.25,-10.35,-7.53,0,*7F
1501988800.36,27767,23.81,74512.8,10.23,-10.49,-7.65,0,*76
1501988801.61,27768,23.88,74514.8,10.23,-10.49,-7.65,0,*79
1501988802.85,27769,23.88,74516.5,10.23,-10.49,-7.69,0,*74
1501988804.07,27770,23.88,74518.0,10.21,-10.49,-7.57,0,*73
1501988805.32,27771,23.88,74518.5,10.23,-10.49,-7.69,0,*7D
1501988806.57,27772,23.88,74518.3,10.23,-10.35,-7.57,0,*78
1501988807.79,27773,23.88,74522.0,10.23,-10.27,-7.53,0,*7E
1501988808.98,27774,23.88,74516.3,10.21,-10.23,-7.53,0,*7F
1501988810.2,27775,23.88,74520.5,10.23,-10.23,-7.53,0,*7C
1501988811.44,27776,23.88,74520.3,10.23,-10.23,-7.39,0,*73
1501988812.66,27777,23.88,74522.8,10.23,-10.27,-7.53,0,*7A
1501988813.88,27778,23.88,74520.5,10.23,-10.27,-7.53,0,*75
1501988815.1,27779,23.88,74522.8,10.23,-10.27,-7.53,0,*74
1501988816.37,27780,23.88,74522.3,10.23,-10.41,-7.57,0,*76
1501988817.61,27781,23.88,74520.3,10.23,-10.53,-7.69,0,*79
1501988818.85,27782,23.88,74518.5,10.23,-10.53,-7.69,0,*7A
1501988820.1,27783,23.88,74516.0,10.21,-10.63,-7.69,0,*7A
1501988821.33,27784,23.88,74512.8,10.21,-10.63,-7.83,0,*79
1501988822.58,27785,23.88,74514.3,10.21,-10.63,-7.77,0,*73
1501988823.85,27786,23.88,74512.5,10.23,-10.63,-7.77,0,*72
1501988825.1,27787,23.88,74512.5,10.23,-10.49,-7.65,0,*78
1501988826.35,27788,23.88,74516.3,10.21,-10.41,-7.65,0,*7D
1501988827.58,27789,23.88,74518.5,10.21,-10.35,-7.65,0,*7F
1501988828.83,27790,23.81,74516.8,10.21,-10.41,-7.57,0,*75
1501988830.02,27791,23.88,74516.5,10.21,-10.27,-7.49,0,*7B
1501988831.25,27792,23.88,74522.0,10.21,-10.23,-7.27,0,*74
1501988832.44,27793,23.88,74522.5,10.21,-10.05,-7.23,0,*75
1501988833.63,27794,23.88,74518.0,10.21,-9.97,-7.15,0,*44
1501988834.82,27795,23.88,74518.0,10.21,-9.93,-7.15,0,*41
1501988836.03,27796,23.88,74518.5,10.23,-9.93,-7.15,0,*40
1501988837.22,27797,23.88,74516.8,10.21,-9.93,-7.11,0,*47
1501988838.46,27798,23.88,74516.3,10.23,-9.83,-7.15,0,*4F
1501988839.67,27799,23.81,74510.8,10.23,-9.97,-7.23,0,*4E
1501988840.86,27800,23.88,74512.8,10.21,-9.97,-7.15,0,*46
1501988842.08,27801,23.88,74516.3,10.23,-9.97,-7.23,0,*40
1501988843.32,27802,23.88,74514.0,10.23,-10.05,-7.35,0,*77
1501988844.54,27803,23.88,74518.5,10.21,-10.15,-7.35,0,*75
1501988845.76,27804,23.88,74516.8,10.23,-9.97,-7.23,0,*45
1501988847.0,27805,23.88,74518.8,10.23,-10.05,-7.35,0,*70
1501988848.2,27806,23.88,74516.0,10.21,-10.23,-7.49,0,*7E
1501988849.47,27807,23.81,74514.5,10.23,-10.41,-7.57,0,*76
1501988850.69,27808,23.88,74516.8,10.25,-10.35,-7.65,0,*7D
1501988851.95,27809,23.88,74514.5,10.23,-10.35,-7.65,0,*7A
1501988853.17,27810,23.88,74516.3,10.21,-10.35,-7.57,0,*71
1501988854.4,27811,23.88,74516.0,10.21,-10.35,-7.57,0,*70
1501988855.65,27812,23.81,74514.3,10.23,-10.35,-7.65,0,*70
1501988856.9,27813,23.88,74514.3,10.23,-10.41,-7.53,0,*77
1501988858.15,27814,23.88,74512.5,10.21,-10.41,-7.65,0,*77
1501988859.38,27815,23.88,74516.0,10.21,-10.35,-7.57,0,*74
1501988860.6,27816,23.88,74516.0,10.23,-10.35,-7.53,0,*71
1501988861.82,27817,23.88,74518.3,10.23,-10.35,-7.53,0,*70
1501988863.07,27818,23.81,74512.8,10.21,-10.41,-7.57,0,*7A
1501988864.29,27819,23.81,74514.3,10.21,-10.41,-7.53,0,*7F
1501988865.54,27820,23.88,74516.5,10.21,-10.41,-7.57,0,*71
1501988866.77,27821,23.88,74516.3,10.21,-10.35,-7.57,0,*73
1501988868.04,27822,23.88,74516.0,10.23,-10.41,-7.57,0,*71
1501988869.27,27823,23.88,74516.8,10.21,-10.35,-7.65,0,*70
1501988870.52,27824,23.88,74518.3,10.21,-10.41,-7.65,0,*74
1501988871.74,27825,23.88,74518.8,10.21,-10.49,-7.69,0,*71
1501988872.95,27826,23.81,74518.8,10.21,-10.53,-7.69,0,*79
1501988874.17,27827,23.88,74518.8,10.21,-10.53,-7.65,0,*74
1501988875.39,27828,23.88,74518.0,10.21,-10.49,-7.69,0,*7C
1501988876.61,27829,23.88,74520.3,10.21,-10.49,-7.57,0,*70
1501988877.85,27830,23.88,74518.5,10.23,-10.53,-7.65,0,*70
1501988879.07,27831,23.88,74520.3,10.21,-10.53,-7.65,0,*73
1501988880.29,27832,23.88,74522.8,10.21,-10.49,-7.65,0,*7B
1501988881.51,27833,23.88,74522.8,10.17,-10.41,-7.53,0,*72
1501988882.73,27834,23.88,74522.5,10.17,-10.41,-7.53,0,*75
1501988883.96,27835,23.88,74522.0,10.15,-10.35,-7.49,0,*7E
1501988885.15,27836,23.81,74520.0,10.17,-10.31,-7.53,0,*70
1501988886.38,27837,23.88,74524.5,10.17,-10.27,-7.43,0,*77
1501988887.63,27838,23.88,74522.3,10.15,-10.23,-7.43,0,*7E
1501988888.86,27839,23.88,74520.3,10.17,-10.19,-7.39,0,*79
1501988890.09,27840,23.88,74520.0,10.17,-10.19,-7.39,0,*77
1501988891.3,27841,23.88,74522.5,10.17,-10.09,-7.31,0,*7F
1501988892.56,27842,23.81,74518.5,10.15,-10.19,-7.31,0,*7F
1501988893.78,27843,23.88,74518.0,10.17,-10.15,-7.31,0,*70
1501988895.01,27844,23.88,74518.5,10.17,-10.15,-7.31,0,*77
1501988896.23,27845,23.81,74516.3,10.17,-10.27,-7.39,0,*7F
1501988897.42,27846,23.81,74518.5,10.17,-10.31,-7.53,0,*77
1501988898.62,27847,23.88,74516.5,10.17,-10.31,-7.53,0,*76
1501988899.84,27848,23.88,74516.0,10.15,-10.31,-7.53,0,*7B